Regional Weather Roundup
Issued by NWS Mobile, AL

Home | Current Version | Previous Version | Text Only | Print | Product List | Glossary On
Versions: 1 2 3 4 5 6 7 8 9 10 11 12 13 14 15 16 17 18 19 20 21 22 23 24 25 26 27 28 29 30 31 32 33 34 35 36 37 38 39 40 41 42 43 44 45 46 47 48 49 50
000
ASUS44 KMOB 290616
RWRMOB
REGIONAL WEATHER ROUNDUP
NATIONAL WEATHER SERVICE MOBILE AL
100 AM CDT SAT AUG 29 2015

ALZ061>064-290700-
COASTAL ALABAMA


CITY           SKY/WX    TMP DP  RH WIND       PRES   REMARKS
MOBILE REG APT FAIR      71  68  90 CALM      30.05F
6HR MIN TEMP:  70; 6HR MAX TEMP:  81;

BROOKLEY FIELD FAIR      71  69  93 CALM      30.06S
6HR MIN TEMP:  71; 6HR MAX TEMP:  83;

GULF SHORES    MOCLDY    74  71  88 CALM      30.04F
6HR MIN TEMP:  72; 6HR MAX TEMP:  82;


$$

ALZ051>060-290700-
INTERIOR SOUTHWEST AND SOUTH CENTRAL ALABAMA


CITY           SKY/WX    TMP DP  RH WIND       PRES   REMARKS
ANDALUSIA/OPP  FAIR      78  70  76 E6        30.08S
6HR MIN TEMP:  78; 6HR MAX TEMP:  85;

EVERGREEN      FAIR      77  71  82 SE7       30.06F
6HR MIN TEMP:  76; 6HR MAX TEMP:  89; 6HR PCP: TRACE;

FLORALA        FAIR      75  69  81 CALM      30.09S
6HR MIN TEMP:  74; 6HR MAX TEMP:  80;

GREENVILLE     FAIR      75  68  78 E7        30.09S
6HR MIN TEMP:  75; 6HR MAX TEMP:  82;


$$

FLZ001>006-290700-
WESTERN FLORIDA PANHANDLE


CITY           SKY/WX    TMP DP  RH WIND       PRES   REMARKS
CRESTVIEW      FAIR      75  72  90 E3        30.07S
6HR MIN TEMP:  75; 6HR MAX TEMP:  83;

DESTIN         FAIR      81  74  79 SE14      30.03F
6HR MIN TEMP:  77; 6HR MAX TEMP:  85; 6HR PCP:  0.03;

DUKE FIELD     FAIR      78  72  82 E5        30.04F
6HR MIN TEMP:  77; 6HR MAX TEMP:  84;

MARY ESTHER    MOCLDY    83  70  63 S10       30.02F
6HR MIN TEMP:  82; 6HR MAX TEMP:  84; 6HR PCP: TRACE;

MILTON         NOT AVBL
PENSACOLA      FAIR      77  71  82 NW3       30.03F
6HR MIN TEMP:  77; 6HR MAX TEMP:  83; 6HR PCP: TRACE;

NAS PENSACOLA  FAIR      75  69  81 NW3       30.03F
6HR MIN TEMP:  74; 6HR MAX TEMP:  82;

VALPARAISO     MOCLDY    80  73  77 SE9       30.04F
6HR MIN TEMP:  80; 6HR MAX TEMP:  85;


$$

...MARINE OBSERVATIONS...

STATION/POSITION TIME  SKY/WX   TEMP    WIND        PRES    VSBY
                                AIR SEA DIR/SP/G
                 (UTC)          (F)     (DEG/KT/KT) (MB)    (MI)
GRAND BAY        0445            76      40/  2     1018.0
E DAUPHIN ISLAND 0600            82     170/  2/  3 1017.1F
MIDDLE BAY LIGHT 0500                   320/  2     1017.3R
MEAHER PARK      0500            80     180/  1     1016.9S
12 S ORANGE BCH  0550            83 86   CALM  /  2 1016.9S
WVE H/P(F/S)=  1

64 S DAUPHIN ISL 0550            83 85  100/  8/ 10 1017.2F
WVE H/P(F/S)=  0

115 SE PENSACOLA 0550            85 86  120/ 10/ 12 1017.6R
WVE H/P(F/S)=  3/ 6

MID GULF/42001   0600            83 86  130/ 10/ 12 1016.4F
EAST GULF/42003  0550            85 87  110/  8/ 12 1016.7S
WVE H/P(F/S)=  2/ 5


$$

...NEARBY LOCATIONS

CITY           SKY/WX    TMP DP  RH WIND       PRES   REMARKS
GULFPORT       FAIR      72  67  84 CALM      30.03S
6HR MIN TEMP:  72; 6HR MAX TEMP:  83;

BILOXI         FAIR      80  67  65 S7        30.03S
6HR MIN TEMP:  80; 6HR MAX TEMP:  82;

PASCAGOULA     FAIR      68  67  96 CALM      30.04F
6HR MIN TEMP:  68; 6HR MAX TEMP:  81;

HATTIESBURG    FAIR      73  67  81 SE5       30.03F
6HR MIN TEMP:  73; 6HR MAX TEMP:  88;

LAUREL         FAIR      70  64  83 CALM      30.04F
6HR MIN TEMP:  68; 6HR MAX TEMP:  88;

MERIDIAN       FAIR      74  69  85 CALM      30.02F
6HR MIN TEMP:  72; 6HR MAX TEMP:  87;

MERIDIAN NAS   FAIR      74  69  85 E7        30.04F
6HR MIN TEMP:  74; 6HR MAX TEMP:  84;

MONTGOMERY     FAIR      74  66  76 E9        30.10F
6HR MIN TEMP:  74; 6HR MAX TEMP:  82;

MAXWELL AFB    FAIR      76  66  71 E7        30.09F
6HR MIN TEMP:  76; 6HR MAX TEMP:  83;

TROY           FAIR      72  67  84 E5        30.12R
6HR MIN TEMP:  72; 6HR MAX TEMP:  82;

FORT RUCKER    FAIR      74  68  81 NE5       30.09R
6HR MIN TEMP:  74; 6HR MAX TEMP:  82;

DALEVILLE      CLOUDY    72  69  89 E7        30.10R
6HR MIN TEMP:  72; 6HR MAX TEMP:  81; 6HR PCP: TRACE;

DOTHAN         FAIR      72  69  90 NE5       30.14R
6HR MIN TEMP:  72; 6HR MAX TEMP:  79;


$$

...OTHER SURROUNDING LOCATIONS...

CITY           SKY/WX    TMP DP  RH WIND       PRES   REMARKS
BIRMINGHAM     FAIR      76  69  79 SE9       30.12F
6HR MIN TEMP:  76; 6HR MAX TEMP:  84;

TUSCALOOSA     FAIR      76  69  79 VRB6      30.07S
6HR MIN TEMP:  76; 6HR MAX TEMP:  85; 6HR PCP: TRACE;

COLUMBUS GA    FAIR      73  70  90 E6        30.13S
6HR MIN TEMP:  72; 6HR MAX TEMP:  75;

PANAMA CITY    NOT AVBL
TALLAHASSEE    FAIR      74  69  85 NE3       30.07F
6HR MIN TEMP:  73; 6HR MAX TEMP:  78; 6HR PCP: TRACE;

BATON ROUGE    FAIR      72  68  87 CALM      30.02S
6HR MIN TEMP:  72; 6HR MAX TEMP:  86;

NEW ORLEANS    FAIR      79  66  64 E6        30.00F
6HR MIN TEMP:  79; 6HR MAX TEMP:  86;

SLIDELL        FAIR      68  67  96 CALM      30.02S
6HR MIN TEMP:  68; 6HR MAX TEMP:  83;

JACKSON        FAIR      75  65  70 S7        30.02F
6HR MIN TEMP:  70; 6HR MAX TEMP:  89;

MCCOMB         FAIR      73  68  84 CALM      30.04S
6HR MIN TEMP:  71; 6HR MAX TEMP:  88;


$$

...SURROUNDING MARINE OBSERVATIONS...

STATION/POSITION TIME  SKY/WX   TEMP    WIND        PRES    VSBY
                                AIR SEA DIR/SP/G
                 (UTC)          (F)     (DEG/KT/KT) (MB)    (MI)
SOUTHWEST PASS   0600                                 N/A
TYNDALL TOWER C  0600            81     130/ 13/ 14 1017.2F
S APLCHCLA/42036 0550            82 87  110/ 17/ 23 1017.1F
WVE H/P(F/S)=  3/ 4


$$




USA.gov is the U.S. government's official web portal to all federal, state and local government web resources and services.